| time (UTC) | temp F | wind direction | speed MPH | gust MPH | rain 1hr in | rain 24hr in | rain mn in | humidity % | barometer mb |
| 20260831172242 | 68 | 157 | 0.0 | 2.0 | 0.00 | 0.19 | 0.19 | 94 | 1021.2 |
| 20260831171602 | 67 | 115 | 0.0 | 3.0 | 0.00 | 0.19 | 0.19 | 95 | 1019.1 |
| 20260831170002 | 65 | 174 | 0.0 | 3.0 | 0.00 | 0.19 | 0.19 | 97 | 1019.3 |
| 20260831164602 | 64 | 163 | 0.0 | 2.0 | 0.03 | 0.19 | 0.19 | 97 | 1019.5 |
| 20260831163003 | 64 | 141 | 0.0 | 2.0 | 0.12 | 0.19 | 0.19 | 97 | 1019.7 |
| 20260831161942 | 64 | 167 | 0.0 | 3.0 | 0.13 | 0.19 | 0.19 | 98 | 1022.0 |
| 20260831161602 | 64 | 165 | 0.0 | 1.0 | 0.13 | 0.19 | 0.19 | 98 | 1019.8 |
| 20260831160141 | 64 | 152 | 0.0 | 1.0 | 0.14 | 0.19 | 0.19 | 98 | 1021.9 |
| 20260831160002 | 64 | 153 | 0.0 | 1.0 | 0.14 | 0.19 | 0.19 | 98 | 1019.8 |
| 20260831155241 | 64 | 158 | 0.0 | 1.0 | 0.13 | 0.18 | 0.18 | 98 | 1021.9 |
| 20260831154603 | 63 | 167 | 0.0 | 1.0 | 0.11 | 0.16 | 0.16 | 98 | 1019.7 |
| 20260831154342 | 64 | 167 | 0.0 | 3.0 | 0.09 | 0.13 | 0.13 | 98 | 1021.8 |
| 20260831153441 | 64 | 184 | 0.0 | 3.0 | 0.05 | 0.07 | 0.07 | 98 | 1022.0 |
| 20260831153005 | 63 | 204 | 0.0 | 1.0 | 0.05 | 0.07 | 0.07 | 98 | 1020.0 |
| 20260831152541 | 64 | 222 | 0.0 | 1.0 | 0.05 | 0.07 | 0.07 | 98 | 1022.1 |
| 20260831151641 | 64 | 194 | 0.0 | 2.0 | 0.04 | 0.06 | 0.06 | 97 | 1022.1 |
| 20260831151603 | 63 | 221 | 0.0 | 2.0 | 0.04 | 0.06 | 0.06 | 97 | 1020.0 |
| 20260831150002 | 63 | 172 | 0.0 | 1.0 | 0.04 | 0.05 | 0.05 | 97 | 1019.9 |
| 20260831144941 | 64 | 211 | 0.0 | 1.0 | 0.04 | 0.05 | 0.05 | 97 | 1022.1 |
| 20260831144606 | 64 | 211 | 0.0 | 1.0 | 0.04 | 0.05 | 0.05 | 97 | 1019.8 |
| 20260831144041 | 64 | 211 | 0.0 | 1.0 | 0.03 | 0.04 | 0.04 | 97 | 1022.0 |
| 20260831143003 | 64 | 211 | 0.0 | 0.0 | 0.02 | 0.02 | 0.02 | 97 | 1019.7 |
| 20260831142241 | 64 | 211 | 0.0 | 1.0 | 0.02 | 0.02 | 0.02 | 97 | 1021.9 |
| 20260831141609 | 63 | 211 | 0.0 | 0.0 | 0.02 | 0.02 | 0.02 | 98 | 1019.6 |
| 20260831140441 | 64 | 199 | 0.0 | 2.0 | 0.02 | 0.02 | 0.02 | 97 | 1021.8 |
| 20260831140002 | 63 | 214 | 0.0 | 3.0 | 0.01 | 0.01 | 0.01 | 97 | 1019.6 |
| 20260831135541 | 64 | 189 | 0.0 | 1.0 | 0.01 | 0.01 | 0.01 | 98 | 1021.6 |
| 20260831134641 | 64 | 186 | 0.0 | 3.0 | 0.01 | 0.01 | 0.01 | 98 | 1021.7 |
| 20260831134606 | 63 | 199 | 0.0 | 3.0 | 0.01 | 0.01 | 0.01 | 98 | 1019.5 |
| 20260831133741 | 63 | 184 | 0.0 | 3.0 | 0.01 | 0.01 | 0.01 | 98 | 1021.7 |
| 20260831133002 | 63 | 165 | 0.0 | 3.0 | 0.00 | 0.00 | 0.00 | 98 | 1019.5 |
| 20260831132841 | 63 | 188 | 1.0 | 3.0 | 0.00 | 0.00 | 0.00 | 98 | 1021.7 |
| 20260831131941 | 63 | 199 | 0.0 | 3.0 | 0.00 | 0.00 | 0.00 | 98 | 1021.8 |
| 20260831131605 | 63 | 192 | 0.0 | 0.0 | 0.00 | 0.00 | 0.00 | 98 | 1019.6 |
| 20260831131041 | 63 | 0 | 0.0 | 0.0 | 0.00 | 0.00 | 0.00 | 98 | 1022.0 |
| 20260831130141 | 63 | 184 | 0.0 | 2.0 | 0.00 | 0.00 | 0.00 | 98 | 1022.1 |
| 20260831130002 | 63 | 186 | 0.0 | 2.0 | 0.00 | 0.00 | 0.00 | 98 | 1019.9 |
| 20260831125241 | 63 | 183 | 0.0 | 2.0 | 0.00 | 0.00 | 0.00 | 98 | 1022.0 |
| 20260831124603 | 62 | 187 | 0.0 | 1.0 | 0.00 | 0.00 | 0.00 | 98 | 1019.8 |
| 20260831124341 | 63 | 189 | 0.0 | 1.0 | 0.00 | 0.00 | 0.00 | 98 | 1021.9 |
| 20260831123004 | 62 | 155 | 0.0 | 0.0 | 0.00 | 0.00 | 0.00 | 98 | 1019.9 |
| 20260831122541 | 62 | 0 | 0.0 | 0.0 | 0.00 | 0.00 | 0.00 | 98 | 1021.9 |
| 20260831121641 | 62 | 0 | 0.0 | 0.0 | 0.00 | 0.00 | 0.00 | 98 | 1021.9 |
| 20260831121602 | 62 | 155 | 0.0 | 0.0 | 0.00 | 0.00 | 0.00 | 98 | 1019.8 |
| 20260831120002 | 62 | 154 | 0.0 | 0.0 | 0.00 | 0.00 | 0.00 | 98 | 1019.9 |
| 20260831115841 | 62 | 0 | 0.0 | 0.0 | 0.00 | 0.00 | 0.00 | 98 | 1022.0 |
| 20260831114602 | 62 | 155 | 0.0 | 0.0 | 0.00 | 0.00 | 0.00 | 98 | 1019.7 |
| 20260831113141 | 62 | 0 | 0.0 | 0.0 | 0.00 | 0.00 | 0.00 | 98 | 1021.7 |
| 20260831113004 | 62 | 155 | 0.0 | 0.0 | 0.00 | 0.00 | 0.00 | 98 | 1019.6 |
| 20260831112241 | 62 | 0 | 0.0 | 0.0 | 0.00 | 0.00 | 0.00 | 98 | 1021.5 |
| 20260831111614 | 62 | 155 | 0.0 | 0.0 | 0.00 | 0.00 | 0.00 | 98 | 1019.5 |
| 20260831110441 | 62 | 0 | 0.0 | 0.0 | 0.00 | 0.00 | 0.00 | 98 | 1021.7 |
| 20260831110003 | 62 | 155 | 0.0 | 0.0 | 0.00 | 0.00 | 0.00 | 98 | 1019.7 |
| 20260831105541 | 62 | 0 | 0.0 | 0.0 | 0.00 | 0.00 | 0.00 | 98 | 1021.6 |
| 20260831104641 | 62 | 0 | 0.0 | 0.0 | 0.00 | 0.00 | 0.00 | 98 | 1021.6 |
| 20260831104604 | 62 | 138 | 0.0 | 0.0 | 0.00 | 0.00 | 0.00 | 98 | 1019.5 |
| 20260831103741 | 62 | 0 | 0.0 | 0.0 | 0.00 | 0.00 | 0.00 | 98 | 1021.5 |
| 20260831103002 | 62 | 159 | 0.0 | 0.0 | 0.00 | 0.00 | 0.00 | 98 | 1019.6 |
| 20260831101941 | 62 | 0 | 0.0 | 0.0 | 0.00 | 0.00 | 0.00 | 98 | 1021.4 |
| 20260831101602 | 62 | 142 | 0.0 | 0.0 | 0.00 | 0.00 | 0.00 | 98 | 1019.3 |
| 20260831101041 | 62 | 0 | 0.0 | 0.0 | 0.00 | 0.00 | 0.00 | 98 | 1021.3 |
| 20260831100141 | 62 | 0 | 0.0 | 0.0 | 0.00 | 0.00 | 0.00 | 98 | 1021.3 |
| 20260831100003 | 62 | 142 | 0.0 | 0.0 | 0.00 | 0.00 | 0.00 | 98 | 1019.2 |
| 20260831095241 | 62 | 0 | 0.0 | 0.0 | 0.00 | 0.00 | 0.00 | 98 | 1021.3 |
| 20260831094605 | 62 | 143 | 0.0 | 0.0 | 0.00 | 0.00 | 0.00 | 98 | 1019.3 |
| 20260831094341 | 62 | 0 | 0.0 | 0.0 | 0.00 | 0.00 | 0.00 | 98 | 1021.4 |
| 20260831093441 | 62 | 0 | 0.0 | 0.0 | 0.00 | 0.00 | 0.00 | 98 | 1021.4 |
| 20260831093002 | 62 | 142 | 0.0 | 0.0 | 0.00 | 0.00 | 0.00 | 98 | 1019.3 |
| 20260831092541 | 62 | 0 | 0.0 | 0.0 | 0.00 | 0.00 | 0.00 | 98 | 1021.4 |
| 20260831091641 | 62 | 0 | 0.0 | 0.0 | 0.00 | 0.00 | 0.00 | 98 | 1021.3 |
| 20260831091605 | 62 | 142 | 0.0 | 0.0 | 0.00 | 0.00 | 0.00 | 98 | 1019.2 |
| 20260831090002 | 62 | 143 | 0.0 | 0.0 | 0.00 | 0.00 | 0.00 | 98 | 1019.2 |
| 20260831084941 | 62 | 0 | 0.0 | 0.0 | 0.00 | 0.00 | 0.00 | 98 | 1021.5 |
| 20260831084609 | 62 | 142 | 0.0 | 0.0 | 0.00 | 0.00 | 0.00 | 98 | 1019.4 |
| 20260831084041 | 62 | 0 | 0.0 | 0.0 | 0.00 | 0.00 | 0.00 | 98 | 1021.5 |
| 20260831083003 | 62 | 142 | 0.0 | 0.0 | 0.00 | 0.00 | 0.00 | 98 | 1019.3 |
| 20260831081606 | 61 | 142 | 0.0 | 0.0 | 0.00 | 0.00 | 0.00 | 98 | 1019.4 |
| 20260831081341 | 62 | 0 | 0.0 | 0.0 | 0.00 | 0.00 | 0.00 | 98 | 1021.6 |
| 20260831080441 | 62 | 0 | 0.0 | 0.0 | 0.00 | 0.00 | 0.00 | 97 | 1021.4 |
| 20260831080004 | 61 | 143 | 0.0 | 0.0 | 0.00 | 0.00 | 0.00 | 97 | 1019.2 |
| 20260831075541 | 62 | 0 | 0.0 | 0.0 | 0.00 | 0.00 | 0.00 | 97 | 1021.3 |
| 20260831074641 | 62 | 0 | 0.0 | 0.0 | 0.00 | 0.00 | 0.00 | 97 | 1021.3 |
| 20260831074606 | 62 | 143 | 0.0 | 0.0 | 0.00 | 0.00 | 0.00 | 97 | 1019.1 |
| 20260831073741 | 62 | 0 | 0.0 | 0.0 | 0.00 | 0.00 | 0.00 | 97 | 1021.3 |
| 20260831073007 | 62 | 142 | 0.0 | 0.0 | 0.00 | 0.00 | 0.00 | 97 | 1019.5 |
| 20260831071941 | 62 | 0 | 0.0 | 0.0 | 0.00 | 0.00 | 0.00 | 97 | 1021.7 |
| 20260831071607 | 62 | 142 | 0.0 | 0.0 | 0.00 | 0.00 | 0.00 | 97 | 1019.5 |
| 20260831071041 | 62 | 0 | 0.0 | 0.0 | 0.00 | 0.00 | 0.00 | 97 | 1021.6 |
| 20260831070002 | 62 | 142 | 0.0 | 0.0 | 0.00 | 0.00 | 0.00 | 97 | 1019.6 |
| 20260831065241 | 62 | 0 | 0.0 | 0.0 | 0.00 | 0.00 | 0.00 | 97 | 1021.8 |
| 20260831064607 | 61 | 145 | 0.0 | 0.0 | 0.00 | 0.00 | 0.00 | 97 | 1019.6 |
| 20260831063003 | 61 | 146 | 0.0 | 0.0 | 0.00 | 0.00 | 0.00 | 97 | 1019.5 |
| 20260831062541 | 62 | 0 | 0.0 | 0.0 | 0.00 | 0.00 | 0.00 | 97 | 1021.6 |
| 20260831061641 | 62 | 0 | 0.0 | 0.0 | 0.00 | 0.00 | 0.00 | 97 | 1021.5 |
| 20260831061602 | 61 | 146 | 0.0 | 0.0 | 0.00 | 0.00 | 0.00 | 97 | 1019.4 |
| 20260831060741 | 62 | 0 | 0.0 | 0.0 | 0.00 | 0.00 | 0.00 | 96 | 1021.4 |
| 20260831060002 | 61 | 145 | 0.0 | 0.0 | 0.00 | 0.00 | 0.00 | 96 | 1019.4 |
| 20260831054941 | 62 | 0 | 0.0 | 0.0 | 0.00 | 0.00 | 0.00 | 96 | 1021.7 |
| 20260831054604 | 62 | 145 | 0.0 | 0.0 | 0.00 | 0.00 | 0.00 | 96 | 1019.6 |
| 20260831054041 | 62 | 0 | 0.0 | 0.0 | 0.00 | 0.00 | 0.00 | 96 | 1021.8 |
| 20260831053141 | 62 | 0 | 0.0 | 0.0 | 0.00 | 0.00 | 0.00 | 96 | 1021.9 |
| 20260831053003 | 62 | 145 | 0.0 | 0.0 | 0.00 | 0.00 | 0.00 | 96 | 1019.8 |
| 20260831052241 | 62 | 0 | 0.0 | 0.0 | 0.00 | 0.00 | 0.00 | 95 | 1022.0 |
| 20260831051603 | 62 | 145 | 0.0 | 0.0 | 0.00 | 0.00 | 0.00 | 95 | 1020.0 |
| 20260831051341 | 62 | 0 | 0.0 | 0.0 | 0.00 | 0.00 | 0.00 | 95 | 1022.1 |
| 20260831050441 | 63 | 0 | 0.0 | 0.0 | 0.00 | 0.00 | 0.00 | 95 | 1022.1 |
| 20260831050002 | 62 | 146 | 0.0 | 0.0 | 0.00 | 0.00 | 0.00 | 95 | 1020.1 |
| 20260831045541 | 63 | 0 | 0.0 | 0.0 | 0.00 | 0.00 | 0.00 | 95 | 1022.3 |
| 20260831044641 | 63 | 0 | 0.0 | 0.0 | 0.00 | 0.00 | 0.00 | 95 | 1022.2 |
| 20260831044606 | 62 | 144 | 0.0 | 0.0 | 0.00 | 0.00 | 0.00 | 95 | 1020.1 |
| 20260831043741 | 63 | 0 | 0.0 | 0.0 | 0.00 | 0.00 | 0.00 | 94 | 1022.2 |
| 20260831043002 | 63 | 145 | 0.0 | 0.0 | 0.00 | 0.00 | 0.00 | 94 | 1020.2 |
| 20260831042841 | 63 | 0 | 0.0 | 0.0 | 0.00 | 0.00 | 0.00 | 94 | 1022.3 |
| 20260831041610 | 63 | 145 | 0.0 | 0.0 | 0.00 | 0.00 | 0.00 | 94 | 1020.2 |
| 20260831041041 | 63 | 0 | 0.0 | 0.0 | 0.00 | 0.00 | 0.00 | 93 | 1022.3 |
| 20260831040141 | 64 | 0 | 0.0 | 0.0 | 0.00 | 0.00 | 0.00 | 93 | 1022.2 |
| 20260831040003 | 63 | 145 | 0.0 | 0.0 | 0.00 | 0.00 | 0.00 | 93 | 1020.1 |
| 20260831035241 | 64 | 0 | 0.0 | 0.0 | 0.00 | 0.00 | 0.00 | 92 | 1022.2 |
| 20260831034609 | 63 | 140 | 0.0 | 0.0 | 0.00 | 0.00 | 0.00 | 92 | 1020.1 |
| 20260831034340 | 64 | 0 | 0.0 | 0.0 | 0.00 | 0.00 | 0.00 | 92 | 1022.3 |
| 20260831033441 | 64 | 0 | 0.0 | 0.0 | 0.00 | 0.00 | 0.00 | 92 | 1022.4 |
| 20260831033003 | 64 | 139 | 0.0 | 0.0 | 0.00 | 0.00 | 0.00 | 91 | 1020.4 |
| 20260831032541 | 64 | 0 | 0.0 | 0.0 | 0.00 | 0.00 | 0.00 | 91 | 1022.4 |
| 20260831031641 | 64 | 0 | 0.0 | 0.0 | 0.00 | 0.00 | 0.00 | 90 | 1022.5 |
| 20260831031605 | 64 | 138 | 0.0 | 0.0 | 0.00 | 0.00 | 0.00 | 90 | 1020.4 |
| 20260831030741 | 64 | 0 | 0.0 | 0.0 | 0.00 | 0.00 | 0.00 | 90 | 1022.4 |
| 20260831030002 | 64 | 153 | 0.0 | 0.0 | 0.00 | 0.00 | 0.00 | 90 | 1020.3 |
| 20260831025841 | 64 | 0 | 0.0 | 0.0 | 0.00 | 0.00 | 0.00 | 90 | 1022.4 |
| 20260831024941 | 64 | 0 | 0.0 | 0.0 | 0.00 | 0.00 | 0.00 | 91 | 1022.4 |
| 20260831024608 | 63 | 153 | 0.0 | 0.0 | 0.00 | 0.00 | 0.00 | 91 | 1020.3 |
| 20260831024041 | 64 | 0 | 0.0 | 0.0 | 0.00 | 0.00 | 0.00 | 91 | 1022.4 |
| 20260831023140 | 64 | 0 | 0.0 | 0.0 | 0.00 | 0.00 | 0.00 | 91 | 1022.3 |
| 20260831023002 | 64 | 154 | 0.0 | 0.0 | 0.00 | 0.00 | 0.00 | 91 | 1020.1 |
| 20260831022241 | 64 | 0 | 0.0 | 0.0 | 0.00 | 0.00 | 0.00 | 91 | 1022.3 |
| 20260831021603 | 63 | 153 | 0.0 | 0.0 | 0.00 | 0.00 | 0.00 | 91 | 1020.1 |
| 20260831021341 | 64 | 0 | 0.0 | 0.0 | 0.00 | 0.00 | 0.00 | 91 | 1022.2 |
| 20260831020441 | 64 | 0 | 0.0 | 0.0 | 0.00 | 0.00 | 0.00 | 92 | 1022.3 |
| 20260831020002 | 63 | 153 | 0.0 | 0.0 | 0.00 | 0.00 | 0.00 | 92 | 1020.2 |
| 20260831015540 | 63 | 0 | 0.0 | 0.0 | 0.00 | 0.00 | 0.00 | 92 | 1022.3 |
| 20260831014641 | 64 | 0 | 0.0 | 0.0 | 0.00 | 0.00 | 0.00 | 91 | 1022.3 |
| 20260831014602 | 63 | 153 | 0.0 | 0.0 | 0.00 | 0.00 | 0.00 | 91 | 1020.2 |
| 20260831013002 | 64 | 154 | 0.0 | 0.0 | 0.00 | 0.00 | 0.00 | 91 | 1020.0 |
| 20260831012841 | 64 | 0 | 0.0 | 0.0 | 0.00 | 0.00 | 0.00 | 91 | 1022.2 |
| 20260831011941 | 64 | 0 | 0.0 | 0.0 | 0.00 | 0.00 | 0.00 | 91 | 1022.2 |
| 20260831011603 | 64 | 153 | 0.0 | 0.0 | 0.00 | 0.00 | 0.00 | 90 | 1020.1 |
| 20260831011040 | 64 | 0 | 0.0 | 0.0 | 0.00 | 0.00 | 0.00 | 90 | 1022.2 |
| 20260831010004 | 64 | 154 | 0.0 | 0.0 | 0.00 | 0.00 | 0.00 | 90 | 1019.9 |
| 20260831005241 | 64 | 0 | 0.0 | 0.0 | 0.00 | 0.00 | 0.00 | 90 | 1022.0 |
| 20260831004610 | 64 | 153 | 0.0 | 0.0 | 0.00 | 0.00 | 0.00 | 90 | 1019.8 |
| 20260831004340 | 65 | 0 | 0.0 | 0.0 | 0.00 | 0.00 | 0.00 | 90 | 1021.8 |
| 20260831003441 | 65 | 59 | 0.0 | 2.0 | 0.00 | 0.00 | 0.00 | 90 | 1021.9 |
| 20260831003005 | 65 | 32 | 0.0 | 2.0 | 0.00 | 0.00 | 0.00 | 89 | 1019.6 |
| 20260831001640 | 65 | 6 | 1.0 | 4.0 | 0.00 | 0.00 | 0.00 | 88 | 1021.4 |
| 20260831001602 | 65 | 25 | 1.0 | 3.0 | 0.00 | 0.00 | 0.00 | 88 | 1019.3 |
| 20260831000740 | 65 | 357 | 1.0 | 4.0 | 0.00 | 0.00 | 0.00 | 88 | 1021.4 |
| 20260831000002 | 65 | 27 | 0.0 | 3.0 | 0.00 | 0.00 | 0.00 | 88 | 1019.2 |
| 20260830235840 | 66 | 357 | 0.0 | 3.0 | 0.00 | 0.00 | 0.00 | 88 | 1021.3 |
| 20260830234941 | 66 | 3 | 0.0 | 2.0 | 0.00 | 0.00 | 0.00 | 87 | 1021.4 |
| 20260830234603 | 66 | 341 | 0.0 | 1.0 | 0.00 | 0.00 | 0.00 | 87 | 1019.2 |
| 20260830233140 | 67 | 2 | 1.0 | 2.0 | 0.00 | 0.00 | 0.00 | 88 | 1021.0 |
| 20260830233002 | 66 | 341 | 0.0 | 2.0 | 0.00 | 0.00 | 0.00 | 88 | 1019.0 |
| 20260830231602 | 67 | 22 | 0.0 | 1.0 | 0.00 | 0.00 | 0.00 | 88 | 1018.8 |
| 20260830230441 | 67 | 355 | 0.0 | 1.0 | 0.00 | 0.00 | 0.00 | 88 | 1021.1 |
| 20260830230003 | 67 | 356 | 0.0 | 1.0 | 0.00 | 0.00 | 0.00 | 88 | 1019.0 |
| 20260830225540 | 68 | 1 | 1.0 | 2.0 | 0.00 | 0.00 | 0.00 | 88 | 1021.2 |
| 20260830224640 | 68 | 1 | 1.0 | 2.0 | 0.00 | 0.00 | 0.00 | 87 | 1021.3 |
| 20260830224608 | 67 | 22 | 0.0 | 2.0 | 0.00 | 0.00 | 0.00 | 87 | 1019.2 |
| 20260830223740 | 68 | 19 | 1.0 | 5.0 | 0.00 | 0.00 | 0.00 | 87 | 1021.5 |
| 20260830223005 | 68 | 304 | 1.0 | 4.0 | 0.00 | 0.00 | 0.00 | 87 | 1019.3 |
| 20260830222840 | 68 | 51 | 1.0 | 5.0 | 0.00 | 0.00 | 0.00 | 87 | 1021.4 |
| 20260830221940 | 68 | 7 | 0.0 | 1.0 | 0.00 | 0.00 | 0.00 | 88 | 1021.3 |
| 20260830221602 | 67 | 276 | 0.0 | 1.0 | 0.00 | 0.00 | 0.00 | 88 | 1019.1 |
| 20260830221040 | 68 | 115 | 0.0 | 2.0 | 0.00 | 0.00 | 0.00 | 89 | 1021.3 |
| 20260830220140 | 68 | 134 | 0.0 | 2.0 | 0.00 | 0.00 | 0.00 | 89 | 1021.3 |
| 20260830220003 | 67 | 145 | 0.0 | 1.0 | 0.00 | 0.00 | 0.00 | 90 | 1019.1 |
| 20260830215240 | 67 | 75 | 0.0 | 1.0 | 0.00 | 0.00 | 0.00 | 90 | 1021.3 |
| 20260830214604 | 67 | 75 | 0.0 | 1.0 | 0.00 | 0.00 | 0.00 | 90 | 1019.1 |
| 20260830214340 | 67 | 63 | 0.0 | 1.0 | 0.00 | 0.00 | 0.00 | 91 | 1021.3 |
| 20260830213440 | 67 | 19 | 0.0 | 2.0 | 0.00 | 0.00 | 0.00 | 89 | 1021.4 |
| 20260830213004 | 67 | 27 | 0.0 | 1.0 | 0.00 | 0.00 | 0.00 | 89 | 1019.4 |
| 20260830212540 | 67 | 38 | 1.0 | 3.0 | 0.00 | 0.00 | 0.00 | 89 | 1021.5 |
| 20260830211606 | 67 | 9 | 0.0 | 5.0 | 0.00 | 0.00 | 0.00 | 87 | 1019.3 |
| 20260830210003 | 68 | 316 | 2.0 | 6.0 | 0.00 | 0.00 | 0.00 | 86 | 1019.3 |
| 20260830205840 | 68 | 53 | 1.0 | 5.0 | 0.00 | 0.00 | 0.00 | 86 | 1021.4 |
| 20260830204604 | 68 | 4 | 0.0 | 4.0 | 0.00 | 0.00 | 0.00 | 85 | 1019.2 |
| 20260830203002 | 69 | 145 | 1.0 | 5.0 | 0.00 | 0.00 | 0.00 | 84 | 1019.2 |
| 20260830202240 | 69 | 56 | 1.0 | 5.0 | 0.00 | 0.00 | 0.00 | 85 | 1021.3 |
| 20260830201340 | 69 | 98 | 1.0 | 3.0 | 0.00 | 0.00 | 0.00 | 85 | 1021.3 |
| 20260830200440 | 69 | 92 | 1.0 | 3.0 | 0.00 | 0.00 | 0.00 | 84 | 1021.4 |
| 20260830200003 | 69 | 135 | 0.0 | 3.0 | 0.00 | 0.00 | 0.00 | 85 | 1019.2 |
| 20260830195540 | 70 | 61 | 1.0 | 3.0 | 0.00 | 0.00 | 0.00 | 83 | 1021.3 |
| 20260830194640 | 70 | 80 | 1.0 | 4.0 | 0.00 | 0.00 | 0.00 | 82 | 1021.5 |
| 20260830194612 | 70 | 33 | 1.0 | 4.0 | 0.00 | 0.00 | 0.00 | 82 | 1019.3 |
| 20260830193741 | 70 | 24 | 1.0 | 6.0 | 0.00 | 0.00 | 0.00 | 81 | 1021.4 |
| 20260830193004 | 70 | 51 | 1.0 | 6.0 | 0.00 | 0.00 | 0.00 | 80 | 1019.3 |
| 20260830192840 | 70 | 43 | 1.0 | 7.0 | 0.00 | 0.00 | 0.00 | 80 | 1021.4 |
| 20260830191940 | 70 | 28 | 1.0 | 6.0 | 0.00 | 0.00 | 0.00 | 80 | 1021.6 |
| 20260830191604 | 70 | 32 | 1.0 | 6.0 | 0.00 | 0.00 | 0.00 | 80 | 1019.3 |
| 20260830191040 | 71 | 40 | 2.0 | 6.0 | 0.00 | 0.00 | 0.00 | 80 | 1021.4 |
| 20260830190140 | 71 | 87 | 1.0 | 4.0 | 0.00 | 0.00 | 0.00 | 79 | 1021.6 |
| 20260830185240 | 71 | 51 | 1.0 | 4.0 | 0.00 | 0.00 | 0.00 | 79 | 1021.8 |
| 20260830184502 | 71 | 5 | 2.0 | 4.0 | 0.00 | 0.00 | 0.00 | 77 | 1019.5 |
| 20260830184340 | 71 | 44 | 1.0 | 5.0 | 0.00 | 0.00 | 0.00 | 77 | 1021.8 |
| 20260830183440 | 72 | 21 | 2.0 | 6.0 | 0.00 | 0.00 | 0.00 | 76 | 1021.8 |
| 20260830183106 | 71 | 26 | 2.0 | 6.0 | 0.00 | 0.00 | 0.00 | 76 | 1019.6 |
| 20260830181640 | 72 | 48 | 2.0 | 3.0 | 0.00 | 0.00 | 0.00 | 75 | 1021.9 |
| 20260830181503 | 72 | 27 | 1.0 | 3.0 | 0.00 | 0.00 | 0.00 | 76 | 1019.6 |
| 20260830174940 | 72 | 67 | 2.0 | 6.0 | 0.00 | 0.00 | 0.00 | 76 | 1021.8 |
| 20260830174505 | 72 | 147 | 1.0 | 3.0 | 0.00 | 0.00 | 0.00 | 76 | 1019.6 |
| 20260830174040 | 72 | 62 | 1.0 | 3.0 | 0.00 | 0.00 | 0.00 | 76 | 1022.0 |
| 20260830173140 | 74 | 38 | 1.0 | 4.0 | 0.00 | 0.00 | 0.00 | 72 | 1021.9 |
| 20260830173103 | 73 | 78 | 0.0 | 3.0 | 0.00 | 0.00 | 0.00 | 72 | 1019.6 |